Clovis Cannon AFB, NM

3:43 PM MDT on June 27, 2017 (GMT -0600)
Cannon Air Force Base

Weather History for KCVS - February, 2014

Change the Weather History Date:

Friday, February 28, 2014

  Actual Average Record
Temperature  
Mean Temperature 58 °F -  
Max Temperature 69 °F 55 °F 82 °F (2006)
Min Temperature 42 °F 28 °F 11 °F (2015)
Degree Days  
Heating Degree Days 8    
Growing Degree Days 8 (Base 50)    
Moisture  
Dew Point 19 °F    
Average Humidity 26    
Maximum Humidity 46    
Minimum Humidity 10    
Precipitation  
Precipitation 0.00 in - - ()
Sea Level Pressure  
Sea Level Pressure 29.70 in    
Wind  
Wind Speed 19 mph (West)    
Max Wind Speed 29 mph    
Max Gust Speed 41 mph    
Visibility 10 miles    
Events      
Averages and records for this station are not official NWS values.
T = Trace of Precipitation, MM = Missing Value Source: NWS Daily Summary

Daily Weather History Graph

Daily Weather History Graph

Search for Another Location

Airport or City:

Trip Planner

Search our weather history database for the weather conditions in past years. The results will help you decide how hot, cold, wet, or windy it might be!

Date:

Astronomy

Feb. 28, 2014 Rise Set
Actual Time 6:23 AM MST 5:48 PM MST
Civil Twilight 5:58 AM MST 6:13 PM MST
Nautical Twilight 5:29 AM MST 6:43 PM MST
Astronomical Twilight 5:00 AM MST 7:12 PM MST
Moon 5:39 AM MST (2/28) 5:27 PM MST (2/28)
Length of Visible Light 12h 15m
Length of Day
11h 25m
Waning Crescent, 0% of the Moon is Illuminated
Feb 28
Waning Crescent
Mar 1
New
Mar 8
First Quarter
Mar 16
Full
Mar 23
Last Quarter

Hourly Weather History & Observations

Time (MST) Temp. Windchill Dew Point Humidity Pressure Visibility Wind Dir Wind Speed Gust Speed Precip Events Conditions
12:58 AM 51.1 °F - 31.1 °F 46% 29.58 in 10.0 mi West 15.0 mph - N/A   Clear
1:58 AM 50.9 °F - 30.4 °F 45% 29.58 in 10.0 mi West 19.6 mph 25.3 mph N/A   Clear
2:58 AM 49.1 °F - 27.3 °F 43% 29.56 in 10.0 mi West 20.7 mph 24.2 mph N/A   Clear
3:58 AM 50.5 °F - 20.8 °F 31% 29.56 in 10.0 mi West 23.0 mph 35.7 mph N/A   Clear
4:58 AM 48.7 °F - 20.3 °F 33% 29.59 in 10.0 mi West 20.7 mph 33.4 mph N/A   Clear
5:58 AM 48.4 °F - 18.5 °F 31% 29.65 in 10.0 mi WNW 18.4 mph 31.1 mph N/A   Clear
6:58 AM 46.4 °F 39.0 °F 19.0 °F 34% 29.68 in 10.0 mi West 19.6 mph 27.6 mph N/A   Clear
7:58 AM 50.9 °F - 19.0 °F 28% 29.70 in 10.0 mi West 28.8 mph 34.5 mph N/A   Clear
8:58 AM 54.9 °F - 19.0 °F 25% 29.72 in 10.0 mi West 28.8 mph 41.4 mph N/A   Clear
9:58 AM 59.2 °F - 18.0 °F 20% 29.71 in 10.0 mi WNW 18.4 mph 32.2 mph N/A   Clear
10:58 AM 62.8 °F - 16.2 °F 16% 29.72 in 10.0 mi WNW 28.8 mph 35.7 mph N/A   Clear
11:58 AM 64.9 °F - 14.5 °F 14% 29.71 in 10.0 mi West 24.2 mph 40.3 mph N/A   Clear
12:58 PM 68.0 °F - 11.8 °F 11% 29.67 in 10.0 mi West 27.6 mph 36.8 mph N/A   Clear
1:58 PM 68.5 °F - 11.5 °F 11% 29.67 in 10.0 mi West 24.2 mph 32.2 mph N/A   Clear
2:58 PM 69.3 °F - 10.8 °F 10% 29.68 in 10.0 mi West 23.0 mph 34.5 mph N/A   Clear
3:58 PM 68.4 °F - 14.2 °F 12% 29.69 in 10.0 mi WSW 19.6 mph 28.8 mph N/A   Clear
4:58 PM 69.1 °F - 14.7 °F 12% 29.69 in 10.0 mi West 18.4 mph 25.3 mph N/A   Clear
5:58 PM 65.5 °F - 20.5 °F 18% 29.73 in 10.0 mi WNW 10.4 mph - N/A   Clear
6:58 PM 60.4 °F - 21.7 °F 23% 29.77 in 10.0 mi WNW 10.4 mph - N/A   Clear
7:58 PM 55.6 °F - 21.6 °F 27% 29.80 in 10.0 mi NW 8.1 mph - N/A   Clear
8:58 PM 55.2 °F - 21.2 °F 27% 29.80 in 10.0 mi NW 10.4 mph - N/A   Clear
9:58 PM 48.0 °F - 19.8 °F 33% 29.83 in 10.0 mi NNW 3.5 mph - N/A   Clear
10:58 PM 46.9 °F - 20.1 °F 35% 29.83 in 10.0 mi WSW 6.9 mph - N/A   Clear
11:58 PM 42.6 °F - 20.5 °F 41% 29.84 in 10.0 mi Calm Calm - N/A   Clear